Regional Weather Roundup
Issued by NWS

Home | Current Version | Previous Version | Graphics & Text | Print | Product List | Glossary On
Versions: 1 2 3 4 5 6 7 8 9 10 11 12 13 14 15 16 17 18 19 20 21 22 23 24 25 26 27 28 29 30 31 32 33 34 35 36 37 38 39 40 41 42 43 44 45 46 47 48 49 50
000
ASUS43 KFSD 161502
RWRSD

WEATHER ROUNDUP FOR SOUTH DAKOTA
NATIONAL WEATHER SERVICE SIOUX FALLS SD
1000 AM CDT WED APR 16 2014

NOTE: "FAIR" INDICATES FEW OR NO CLOUDS BELOW 12,000 FEET WITH NO
SIGNIFICANT WEATHER AND/OR OBSTRUCTIONS TO VISIBILITY.


SDZ001>005-009-010-012>017-161600-
NORTHWEST AND NORTH CENTRAL SOUTH DAKOTA

CITY           SKY/WX    TMP DP  RH WIND       PRES   REMARKS
FAITH            N/A     32  21  64 N18       29.87R WCI  20
MOBRIDGE       CLOUDY    29  23  78 NE20      29.88R WCI  16
$$

SDZ012>016-024>037-041>051-057-063-072>074-161600-
SOUTHWEST AND SOUTH CENTRAL SOUTH DAKOTA

CITY           SKY/WX    TMP DP  RH WIND       PRES   REMARKS
RAPID CTY ARPT LGT RAIN  34  31  88 N24G30    29.83R WCI  21
PIERRE         CLOUDY    30  27  88 N23G29    29.82R WCI  17
CUSTER         CLOUDY    33  24  69 N10G22    29.80R WCI  25
PHILIP         CLOUDY    33  28  81 N16       29.85R WCI  23
PINE RIDGE     LGT RAIN  37  35  92 N8        29.82R FOG
WINNER         LGT SNOW  33  31  92 N25       29.74R FOG     WCI  20
$$

SDZ004>011-016>023-039-040-161600-
NORTHEAST SOUTH DAKOTA

CITY           SKY/WX    TMP DP  RH WIND       PRES   REMARKS
ABERDEEN       CLOUDY    28  25  88 NE20G29   29.89R WCI  15
WATERTOWN      SNOW      28  25  88 NE23      29.74R VSB 1/2 WCI  14
SISSETON         N/A     28  27  96 E17       29.88R WCI  16
$$

SDZ017-020-022-023-036>040-048>070-161600-
SOUTHEAST SOUTH DAKOTA

CITY           SKY/WX    TMP DP  RH WIND       PRES   REMARKS
SIOUX FALLS    LGT RAIN  44  32  62 S16       29.63R
HURON          SNOW      31  28  89 NE20      29.74R VSB 1/2 WCI  19
CHAMBERLAIN      N/A     31  29  92 N20G25    29.72R WCI  19
MITCHELL       CLOUDY    44  35  70 NE20      29.61R
YANKTON        CLOUDY    48  25  40 S12       29.62R
$$

ABBREVIATIONS USED IN REMARKS
   TC - TEMPERATURE IN CELSIUS
  WCI - WIND CHILL INDEX
   HX - HEAT INDEX
  VSB - VISIBILITY




USA.gov is the U.S. government's official web portal to all federal, state and local government web resources and services.